www.pogodaiklimat.ru

Погода и климат >> Архив погоды >> Узбекистан >> Ташкент


АРХИВ ПОГОДЫ в Ташкенте

Время (UTC), дата Ветер
(напр.,м/с)
 
Видим.   Явления Облачность Т
(С)
Тd
(С)
f
(%)
Тe
(С)
Тes
(С)
Комфортность P
(гПа)
Po
(гПа)
Тmin
(С)
Tmax
(С)
R
(мм)
R24
(мм)
S
(см)
21 8.09 штиль 0 10 км 9/9 600 м
[]
+17.3 +8.1 55 +17 +17 по сезону 1012.7 956.6
00 9.09 В 1 10 км слаб. дождь 10/10 600 м
[Sc As op]
+16.8 +9.8 63 +18 +18 тепло 1013.5 957.3
03 9.09 В 1 10 км слаб. дождь 10/10 600 м
[Sc As op]
+15.7 +9.8 68 +16 +16 холодно 1016.7 960.2 0.1
06 9.09 ЮВ 2 10 км слаб. ливневой дождь 10/9 1000 м
[Cb calv Ac lent]
+14.4 +10.2 76 +14 +14 очень
холодно
1017.5 960.6 +15.4 0.1
09 9.09 ЮЗ 1 10 км {ливн. осадки} 9/8 1000 м
[Sc Ac lent]
+16.2 +9.5 64 +17 +19 очень
холодно
1017.1 960.6
12 9.09 ЮВ 1 10 км {ливн. осадки} 10/8 600 м
[Sc Ac lent]
+16.4 +9.5 64 +17 +17 очень
холодно
1017.7 961.2
15 9.09 Ю 2 10 км 8/4 600 м
[Sc diur, vesp Ac lent Ci fib]
+13.3 +9.8 79 +13 +13 очень
холодно
1019.5 962.4 +17.3
18 9.09 СВ 1 10 км 4/0
[Ac trans Ci fib]
+12.2 +10.0 86 +12 +12 холодно 1021.4 963.9 +17.3 0.0
21 9.09 СВ 2 10 км 3/0
[Ac trans Ci fib]
+11.4 +9.2 86 +10 +10 холодно 1021.4 963.7
00 10.09 СВ 1 10 км ясно +11.4 +8.4 82 +11 +11 прохладно 1021.7 964.0
03 10.09 СВ 1 10 км ясно +14.7 +9.0 69 +15 +18 холодно 1021.9 964.9
06 10.09 С 1 50 км 3/1 1000 м
[Cu hum Ci fib]
+20.9 +4.1 33 +23 +35 комфорт 1021.1 965.3 +10.8
09 10.09 З 2 50 км 3/1 1000 м
[Cu med, cong]
+23.4 +2.5 25 +23 +32 комфорт 1020.0 964.6
12 10.09 З 2 50 км 1/1 1000 м
[Cu med, cong]
+23.6 +2.5 25 +23 +25 комфорт 1019.1 963.8
15 10.09 штиль 0 10 км ясно +19.4 +3.2 34 +20 +20 холодно 1020.0 964.0 +24.4
18 10.09 СЗ 2 10 км ясно +16.3 +2.7 40 +17 +17 по сезону 1020.1 963.4 +24.4
21 10.09 С 1 10 км ясно +12.5 +5.5 62 +13 +13 прохладно 1020.3 962.9
00 11.09 СВ 1 10 км ясно +11.8 +4.5 61 +12 +12 прохладно 1020.6 963.0
03 11.09 С 1 50 км ясно +17.4 +4.3 42 +18 +21 прохладно 1020.4 963.9
06 11.09 ЮЗ 1 50 км ясно +23.4 +0.6 22 +22 +36 комфорт 1020.0 964.6 +10.9
09 11.09 ЮЗ 1 10 км ясно +25.4 +0.2 19 +24 +37 комфорт 1019.0 964.0
12 11.09 З 1 50 км ясно +25.8 -2.7 15 +24 +26 комфорт 1018.5 963.6
15 11.09 ЮЗ 1 10 км ясно +19.3 +2.1 32 +21 +21 комфорт 1019.5 963.4 +26.6
18 11.09 СВ 1 10 км ясно +15.5 +4.1 47 +16 +16 прохладно 1020.1 963.3 +26.6
21 11.09 С 1 10 км ясно +13.0 +2.5 49 +13 +13 прохладно 1019.7 962.4
00 12.09 С 1 10 км ясно +11.7 +5.0 63 +12 +12 прохладно 1019.8 962.2
03 12.09 СВ 1 50 км ясно +17.4 +4.3 42 +18 +21 прохладно 1018.9 962.5
06 12.09 ЮЗ 1 10 км ясно +25.4 +4.8 27 +25 +39 комфорт 1017.0 962.2 +11.5
09 12.09 ЮЗ 1 10 км 1/0
[Ci fib]
+27.0 +3.6 22 +26 +39 жарко 1015.7 961.2
12 12.09 ЮЗ 1 10 км ясно +27.4 -0.4 16 +25 +27 комфорт 1014.6 960.2
15 12.09 ЮЗ 1 10 км ясно +20.7 +1.9 29 +22 +22 комфорт 1015.8 960.2 +28.4
18 12.09 СВ 1 10 км ясно +15.8 +4.8 48 +17 +17 по сезону 1016.7 960.2 +28.4
21 12.09 СВ 1 10 км ясно +13.9 +3.8 51 +14 +14 прохладно 1016.3 959.4
00 13.09 СВ 1 10 км ясно +12.1 +3.2 54 +12 +12 прохладно 1016.6 959.3
03 13.09 СВ 1 10 км ясно +18.5 +2.7 35 +20 +23 по сезону 1016.2 960.2 197
06 13.09 Ю 1 10 км 6/0
[Ci fib]
+23.9 +4.6 29 +24 +36 комфорт 1015.4 960.4 +11.7
09 13.09 З 2 10 км 3/0
[Ac lent Ci fib]
+28.7 +2.1 18 +27 +36 жарко 1013.6 959.5
12 13.09 ЮЗ 2 10 км 4/0
[Ci fib]
+28.2 +2.5 19 +26 +28 жарко 1013.2 959.0
15 13.09 штиль 0 10 км 1/0
[Ci fib]
+20.8 +6.1 38 +21 +21 комфорт 1014.5 959.0 +29.7
18 13.09 С 1 10 км ясно +17.0 +6.7 51 +18 +18 по сезону 1015.3 959.0 +29.7
21 13.09 С 1 10 км ясно +14.6 +5.6 55 +15 +15 по сезону 1014.9 958.2
00 14.09 штиль 0 10 км ясно +15.5 +5.8 52 +15 +15 по сезону 1014.1 957.6
03 14.09 С 2 10 км 5/0
[Ac lent Ci fib]
+19.8 +3.6 34 +21 +22 комфорт 1014.4 958.6
06 14.09 З 1 10 км 3/0
[Ac trans Ci fib]
+27.0 +1.5 19 +25 +36 комфорт 1013.7 959.4 +14.2
09 14.09 Ю 2 10 км 9/0
[Ac lent Ci fib]
+29.4 +2.9 18 +27 +31 жарко 1012.5 958.6
12 14.09 ЮЗ 1 10 км 9/8 1000 м
[Sc Ac lent Ci fib]
+28.0 +2.9 20 +26 +27 жарко 1012.3 958.2
15 14.09 ЮЗ 1 10 км 10/10 600 м
[Sc]
+24.8 +5.9 30 +25 +25 комфорт 1013.8 959.1 +30.0
18 14.09 СВ 1 10 км 10/10 600 м
[Sc]
+22.4 +4.0 30 +22 +22 комфорт 1014.4 959.2 +30.0
21 14.09 СЗ 1 10 км 9/8 600 м
[Sc Ac lent]
+20.0 +5.1 38 +22 +22 комфорт 1013.8 958.2
00 15.09 С 1 10 км 4/0
[Ac trans Ci fib]
+18.0 +7.1 49 +19 +19 тепло 1014.2 958.2
03 15.09 СВ 1 50 км 9/6 1000 м
[Sc Ac lent]
+20.8 +7.7 43 +23 +24 комфорт 1014.5 959.0
06 15.09 СВ 2 4000 м слаб. ливневой дождь 9/9
[Cb calv]
+21.9 +9.9 46 +23 +25 комфорт 1015.6 960.3 +17.3
09 15.09 штиль 0 10 км {ливн. осадки} 8/8
[Sc]
+23.2 +10.0 43 +25 +28 комфорт 1015.4 960.4
12 15.09 З 1 10 км в посл. час ливневой дождь 8/8 1000 м
[Cb calv]
+25.7 +6.2 29 +25 +26 комфорт 1015.2 960.6
15 15.09 СЗ 1 10 км 3/0
[Ac cast]
+20.1 +6.1 40 +22 +22 комфорт 1018.2 962.4 +25.7
18 15.09 С 1 10 км 3/0
[Ac lent]
+16.4 +8.6 60 +17 +17 по сезону 1018.9 962.4 +25.7 0.0

 

Местоположение метеостанции Ташкент (Ташкентская область, Узбекистан): широта 41.27 долгота 69.27 высота над уровнем моря 466 м.

В архиве по умолчанию представлена погода в Ташкенте за последнюю неделю. Архивные данные за месяц целиком и за предыдущие месяцы, начиная с января 2011 года, Вы можете получить, выбрав интересующий диапазон дат из раскрывающегося списка и нажав кнопку "Ввод!".


*Определитесь, кто Вы:
робот инопланетянин человек

Внимание! Время в таблицах - всемирное. Для получения местного времени необходимо прибавить поправку, которая равна 5 ч.

Смотрите также архив погоды в соседних городах и на ближайших метеорологических станциях:

Погода в Каунчи (Ташкентская область, Узбекистан) (31 км)
Погода в Туябугузе (Ташкентская область, Узбекистан) (37 км)
Погода в Келесе (Южно-Казахстанская область, Казахстан) (38 км)
Погода в Красноярской (Южно-Казахстанская область, Казахстан) (54 км)
Погода в Казыгурте (Южно-Казахстанская область, Казахстан) (55 км)
Погода в Дуканте (Ташкентская область, Узбекистан) (68 км)
Погода в Чимгане (Ташкентская область, Узбекистан) (70 км)
Погода в Сырдарье (Сырдарьинская область, Узбекистан) (70 км)
Погода в Ангрене (Ташкентская область, Узбекистан) (82 км)
Погода в Жетысае (Южно-Казахстанская область, Казахстан) (96 км)

Пояснения к столбцам:

Ветер - указаны скорость ветра в м/с - средняя за 10 мин, порывы в срок и между сроками (в фигурных скобках) и направление, откуда дует ветер: С - северный, СВ - северо-восточный, В - восточный, ЮВ - юго-восточный, Ю - южный, ЮЗ - юго-западный, З - западный, СЗ - северо-западный.
Видимость - горизонтальная дальность видимости в метрах или километрах. При видимости от 1 до 10 км при отсутствии осадков обычно наблюдается дымка, при ухудшении видимости до 1 км и менее - туман. В сухую погоду видимость может ухудшаться дымом, пылью или мглою.
Явления - указаны атмосферные явления, наблюдавшиеся в срок или в последний час перед сроком; фигурными скобками обозначены явления, наблюдавшиеся между сроками (за 1-3 часа до срока); квадратными скобками обозначены град или гололедные отложения с указанием их диаметра в мм.
Облачность - указаны через наклонную черту общая и нижняя облачность в баллах и высота нижней границы облаков в метрах; квадратными скобками обозначены формы облаков: Ci - перистые, Cs - перисто-слоистые, Cc - перисто-кучевые, Ac - высококучевые, As - высокослоистые, Sc - слоисто-кучевые, Ns - слоисто-дождевые, Cu - кучевые, Cb - кучево-дождевые. Подробнее классификацию облаков см. в Атласе облаков (PDF).
T - Температура воздуха - температура, измеренная на высоте 2 м над землей.
Td - Температура точки росы - температура, при понижении до которой содержащийся в воздухе водяной пар достигнет насыщения.
f - Относительная влажность воздуха - влажноcть воздуха, измеренная на высоте 2 м над землей.
Te - Эффективная температура - температура, которую ощущает одетый по сезону человек в тени. Характеристика душности погоды. При расчете учитывается влияние влажности воздуха и скорости ветра на теплоощущения человека.
Tes - Эффективная температура на солнце - температура, которую ощущает человек, с поправкой на солнечный нагрев. Характеристика знойности погоды. Зависит от высоты солнца над горизонтом, облачности и скорости ветра. Ночью, в пасмурную погоду, а также при ветре 12 м/с и более поправка равна нулю.
P - Атмосферное давление - приведенное к уровню моря атмосферное давление.
Po - Атмосферное давление - измеренное на уровне метеостанции атмосферное давление.
Tmin - Минимальная температура - минимум температуры воздуха на высоте 2 м над землей.
Tmax - Максимальная температура - максимум температуры воздуха на высоте 2 м над землей.
R - Количество осадков - Количество выпавших осадков за период времени, мм. При наведении курсора мыши на число - период времени, за который выпало указанное количество осадков.
R24 - Количество осадков - Количество выпавших осадков за 24 часа, мм.
S - Снежный покров - Высота снежного покрова, см. При наведении курсора мыши на число - состояние снежного покрова и степень покрытия местности в баллах.